User: anonymous   Login
Location: Joplin
(37.0842°N, 94.5131°W)
Time: 20:06:32
(UTC-05:00)
Language:

Oscar 11 - Orbit

View from above orbital plane
View from above orbital plane
View from above satellite
View from above satellite

Ground track
Ground track

The orbit data is extracted from the following two-line orbital elements,

1 14781U 84021B   19144.53448032  .00000033  00000-0  10154-4 0  9995
2 14781  97.6125 170.4402 0009617  49.7413 310.4641 14.83085710895033
Epoch (UTC): 24 May 2019 12:49:39
Eccentricity: 0.0009617
inclination: 97.6125°
perigee height: 613 km
apogee height: 626 km
right ascension of ascending node: 170.4402°
argument of perigee: 49.7413°
revolutions per day: 14.83085710
mean anomaly at epoch: 310.4641°
orbit number at epoch: 89503

The dashed part of the orbit path shows where the satellite is in the earth's shadow,  

DLR